When you browse on this site, cookies collect data to enhance your experience and personalize the content and advertising you see.
Visit our Privacy Policy to learn more. By continuing to use the site, you agree to this use of cookies and data.
  • în România
  • Lista ţărilor
  • Pe 7 zile
  • Temperatura apei
  • Hartă satelitară
  • Meteo pe hartă
  • Widget-uri
  • user-avatar
    Intrare

    Meteo pe oră la Limerick

    Astăzi, 24 Martie, Duminică

    Timp Temperatura Precipitaţii Vânt Presiune Umiditate
    00:00 +3°C° 0 mm 1 m/s 774 mmHg 91%
    01:00 +3°C° 0 mm 1 m/s 774 mmHg 91%
    02:00 +3°C° 0 mm 1 m/s 774 mmHg 92%
    03:00 +3°C° 0 mm 1 m/s 774 mmHg 92%
    04:00 +3°C° 0 mm 1 m/s 774 mmHg 93%
    05:00 +3°C° 0 mm 1 m/s 774 mmHg 93%
    06:00 +4°C° 0 mm 2 m/s 774 mmHg 86%
    07:00 +4°C° 0 mm 3 m/s 775 mmHg 80%
    08:00 +6°C° 0 mm 4 m/s 775 mmHg 73%
    09:00 +7°C° 0 mm 4 m/s 775 mmHg 72%
    10:00 +7°C° 0 mm 4 m/s 775 mmHg 71%
    11:00 +8°C° 0 mm 5 m/s 775 mmHg 69%
    12:00 +8°C° 0 mm 5 m/s 775 mmHg 70%
    13:00 +8°C° 0 mm 5 m/s 775 mmHg 70%
    14:00 +8°C° 0 mm 5 m/s 775 mmHg 70%
    15:00 +8°C° 0 mm 4 m/s 775 mmHg 73%
    16:00 +7°C° 0 mm 4 m/s 775 mmHg 76%
    17:00 +8°C° 0 mm 3 m/s 775 mmHg 79%
    18:00 +7°C° 0 mm 3 m/s 775 mmHg 83%
    19:00 +5°C° 0 mm 3 m/s 775 mmHg 86%
    20:00 +5°C° 0 mm 2 m/s 776 mmHg 90%
    21:00 +4°C° 0 mm 2 m/s 776 mmHg 91%
    22:00 +4°C° 0 mm 2 m/s 776 mmHg 92%
    23:00 +4°C° 0 mm 2 m/s 776 mmHg 93%

    Mâine, 25 Martie, Luni

    Timp Temperatura Precipitaţii Vânt Presiune Umiditate
    00:00 +3°C° 0 mm 2 m/s 776 mmHg 93%
    01:00 +4°C° 0 mm 1 m/s 776 mmHg 94%
    02:00 +4°C° 0 mm 1 m/s 776 mmHg 94%
    03:00 +4°C° 0 mm 1 m/s 776 mmHg 94%
    04:00 +3°C° 0 mm 1 m/s 776 mmHg 94%
    05:00 +3°C° 0 mm 1 m/s 776 mmHg 94%
    06:00 +5°C° 0 mm 1 m/s 777 mmHg 89%
    07:00 +6°C° 0 mm 0 m/s 777 mmHg 84%
    08:00 +7°C° 0 mm 0 m/s 777 mmHg 80%
    09:00 +9°C° 0 mm 0 m/s 777 mmHg 74%
    10:00 +11°C° 0 mm 1 m/s 777 mmHg 69%
    11:00 +12°C° 0 mm 1 m/s 777 mmHg 63%
    12:00 +13°C° 0 mm 1 m/s 777 mmHg 62%
    13:00 +13°C° 0 mm 1 m/s 777 mmHg 60%
    14:00 +14°C° 0 mm 1 m/s 777 mmHg 59%
    15:00 +13°C° 0 mm 1 m/s 777 mmHg 65%
    16:00 +12°C° 0 mm 1 m/s 776 mmHg 71%
    17:00 +10°C° 0 mm 2 m/s 776 mmHg 77%
    18:00 +10°C° 0 mm 1 m/s 777 mmHg 81%
    19:00 +8°C° 0 mm 1 m/s 777 mmHg 84%
    20:00 +7°C° 0 mm 1 m/s 777 mmHg 88%
    21:00 +6°C° 0 mm 1 m/s 777 mmHg 89%
    22:00 +5°C° 0 mm 1 m/s 777 mmHg 90%
    23:00 +3°C° 0 mm 0 m/s 777 mmHg 91%

    Poimâine, 26 Martie, Marţi

    Timp Temperatura Precipitaţii Vânt Presiune Umiditate
    00:00 +3°C° 0 mm 0 m/s 777 mmHg 91%
    01:00 +3°C° 0 mm 0 m/s 777 mmHg 92%
    02:00 +4°C° 0 mm 1 m/s 777 mmHg 92%
    03:00 +4°C° 0 mm 1 m/s 777 mmHg 93%
    04:00 +3°C° 0 mm 1 m/s 777 mmHg 93%
    05:00 +3°C° 0 mm 1 m/s 776 mmHg 94%
    06:00 +5°C° 0 mm 1 m/s 776 mmHg 90%
    07:00 +7°C° 0 mm 1 m/s 777 mmHg 85%
    08:00 +8°C° 0 mm 1 m/s 777 mmHg 81%
    09:00 +10°C° 0 mm 1 m/s 777 mmHg 74%
    10:00 +10°C° 0 mm 2 m/s 777 mmHg 68%
    11:00 +13°C° 0 mm 2 m/s 777 mmHg 61%
    12:00 +13°C° 0 mm 2 m/s 776 mmHg 61%
    13:00 +13°C° 0 mm 2 m/s 776 mmHg 61%
    14:00 +14°C° 0 mm 2 m/s 776 mmHg 61%
    15:00 +13°C° 0 mm 2 m/s 776 mmHg 68%
    16:00 +12°C° 0 mm 2 m/s 776 mmHg 74%
    17:00 +10°C° 0 mm 2 m/s 775 mmHg 80%
    18:00 +9°C° 0 mm 1 m/s 776 mmHg 84%
    19:00 +8°C° 0 mm 1 m/s 776 mmHg 89%
    20:00 +6°C° 0 mm 1 m/s 776 mmHg 93%
    21:00 +4°C° 0 mm 0 m/s 776 mmHg 93%
    22:00 +4°C° 0 mm 0 m/s 776 mmHg 93%
    23:00 +4°C° 0 mm 0 m/s 776 mmHg 93%

    27 Martie, Miercuri

    Timp Temperatura Precipitaţii Vânt Presiune Umiditate
    00:00 +3°C° 0 mm 0 m/s 776 mmHg 93%
    01:00 +3°C° 0 mm 0 m/s 776 mmHg 93%
    02:00 +3°C° 0 mm 0 m/s 776 mmHg 93%
    03:00 +3°C° 0 mm 0 m/s 776 mmHg 94%
    04:00 +3°C° 0 mm 0 m/s 776 mmHg 94%
    05:00 +3°C° 0 mm 1 m/s 776 mmHg 94%
    06:00 +5°C° 0 mm 1 m/s 776 mmHg 90%
    07:00 +7°C° 0 mm 1 m/s 776 mmHg 86%
    08:00 +9°C° 0 mm 1 m/s 777 mmHg 82%
    09:00 +10°C° 0 mm 1 m/s 777 mmHg 75%
    10:00 +12°C° 0 mm 2 m/s 777 mmHg 68%
    11:00 +14°C° 0 mm 2 m/s 777 mmHg 61%
    12:00 +14°C° 0 mm 2 m/s 777 mmHg 61%
    13:00 +14°C° 0 mm 2 m/s 777 mmHg 61%
    14:00 +14°C° 0 mm 2 m/s 777 mmHg 62%
    15:00 +13°C° 0 mm 2 m/s 777 mmHg 68%
    16:00 +12°C° 0 mm 2 m/s 777 mmHg 74%
    17:00 +10°C° 0 mm 2 m/s 777 mmHg 80%
    18:00 +9°C° 0 mm 1 m/s 777 mmHg 84%
    19:00 +8°C° 0 mm 1 m/s 777 mmHg 88%
    20:00 +6°C° 0 mm 1 m/s 777 mmHg 93%
    21:00 +4°C° 0 mm 0 m/s 777 mmHg 93%
    22:00 +4°C° 0 mm 0 m/s 778 mmHg 92%
    23:00 +4°C° 0 mm 0 m/s 778 mmHg 92%

    28 Martie, Joi

    Timp Temperatura Precipitaţii Vânt Presiune Umiditate
    00:00 +3°C° 0 mm 0 m/s 778 mmHg 92%
    01:00 +3°C° 0 mm 0 m/s 777 mmHg 92%
    02:00 +3°C° 0 mm 0 m/s 777 mmHg 92%
    03:00 +3°C° 0 mm 0 m/s 777 mmHg 93%
    04:00 +3°C° 0 mm 0 m/s 777 mmHg 93%
    05:00 +4°C° 0 mm 1 m/s 777 mmHg 93%
    06:00 +5°C° 0 mm 1 m/s 777 mmHg 89%
    07:00 +7°C° 0 mm 1 m/s 777 mmHg 85%
    08:00 +9°C° 0 mm 1 m/s 777 mmHg 81%
    09:00 +10°C° 0 mm 2 m/s 777 mmHg 75%
    10:00 +13°C° 0 mm 2 m/s 776 mmHg 69%
    11:00 +13°C° 0 mm 3 m/s 776 mmHg 63%
    12:00 +14°C° 0 mm 3 m/s 775 mmHg 63%
    13:00 +16°C° 0 mm 3 m/s 775 mmHg 62%
    14:00 +16°C° 0 mm 3 m/s 774 mmHg 61%
    15:00 +14°C° 0 mm 3 m/s 774 mmHg 66%
    16:00 +14°C° 0 mm 2 m/s 774 mmHg 72%
    17:00 +13°C° 0 mm 2 m/s 773 mmHg 77%
    18:00 +10°C° 0 mm 2 m/s 773 mmHg 81%
    19:00 +8°C° 0 mm 2 m/s 774 mmHg 85%
    20:00 +6°C° 0 mm 2 m/s 774 mmHg 89%
    21:00 +5°C° 0 mm 2 m/s 773 mmHg 90%
    22:00 +4°C° 0 mm 2 m/s 773 mmHg 90%
    23:00 +4°C° 0 mm 2 m/s 773 mmHg 90%

    29 Martie, Vineri

    Timp Temperatura Precipitaţii Vânt Presiune Umiditate
    00:00 +4°C° 0 mm 2 m/s 773 mmHg 92%
    01:00 +4°C° 0 mm 2 m/s 772 mmHg 93%
    02:00 +4°C° 0 mm 2 m/s 772 mmHg 95%
    03:00 +4°C° 0 mm 2 m/s 772 mmHg 95%
    04:00 +4°C° 0 mm 2 m/s 771 mmHg 96%
    05:00 +4°C° 0 mm 2 m/s 771 mmHg 96%
    06:00 +6°C° 0 mm 2 m/s 771 mmHg 93%
    07:00 +7°C° 0 mm 3 m/s 771 mmHg 90%
    08:00 +9°C° 0 mm 3 m/s 771 mmHg 87%
    09:00 +10°C° 0 mm 3 m/s 770 mmHg 82%
    10:00 +12°C° 0 mm 4 m/s 770 mmHg 78%
    11:00 +13°C° 0 mm 4 m/s 770 mmHg 73%
    12:00 +13°C° 0 mm 4 m/s 769 mmHg 74%
    13:00 +13°C° 0 mm 4 m/s 769 mmHg 75%
    14:00 +13°C° 0 mm 4 m/s 768 mmHg 76%
    15:00 +12°C° 0 mm 3 m/s 768 mmHg 79%
    16:00 +11°C° 0 mm 3 m/s 768 mmHg 81%
    17:00 +10°C° 0 mm 2 m/s 767 mmHg 84%
    18:00 +10°C° 0 mm 2 m/s 767 mmHg 85%
    19:00 +9°C° 0 mm 2 m/s 767 mmHg 86%
    20:00 +9°C° 0 mm 2 m/s 767 mmHg 88%
    21:00 +8°C° 0 mm 2 m/s 767 mmHg 89%
    22:00 +8°C° 0 mm 2 m/s 767 mmHg 91%
    23:00 +8°C° 0 mm 2 m/s 767 mmHg 92%
    Arată mai mult